Date,TemperatureHighF,TemperatureAvgF,TemperatureLowF,DewpointHighF,DewpointAvgF,DewpointLowF,HumidityHigh,HumidityAvg,HumidityLow,PressureMaxIn,PressureMinIn,WindSpeedMaxMPH,WindSpeedAvgMPH,GustSpeedMaxMPH,PrecipitationSumIn
2013-2-1,29.3,26.6,21.2,21.1,11.3,6.2,84,52,39,30.35,29.89,28,7,28,0.35
2013-2-2,28.8,23.0,16.2,22.4,11.0,5.7,92,61,41,30.38,30.10,21,5,21,0.00
2013-2-3,29.6,25.5,22.1,25.1,21.7,19.5,94,86,71,30.10,29.87,19,1,19,0.04
2013-2-4,28.9,24.9,19.1,22.0,13.6,10.6,77,62,51,30.09,29.92,23,5,23,0.04
2013-2-5,31.9,29.8,27.5,29.7,26.8,21.9,94,89,77,30.02,29.94,9,1,9,0.00
2013-2-6,38.6,31.9,26.1,29.8,24.6,17.3,96,76,53,30.41,29.98,24,3,24,0.02
2013-2-7,34.2,28.4,22.4,23.7,17.8,13.9,77,65,51,30.55,30.33,20,2,20,0.02
2013-2-8,37.1,33.8,31.2,34.5,31.4,23.8,96,91,72,30.33,29.73,25,6,25,0.22
2013-2-9,32.7,27.9,21.9,30.9,18.3,9.7,96,69,46,30.43,29.83,34,6,34,0.18
2013-2-10,38.9,27.6,14.7,22.9,14.0,9.2,81,58,33,30.55,30.37,13,2,13,0.04
2013-2-11,48.7,39.3,30.9,48.2,37.4,22.9,100,93,70,30.37,29.72,27,3,27,0.34
2013-2-12,45.2,40.3,31.2,39.6,28.0,24.2,89,62,49,30.05,29.82,26,5,26,0.34
2013-2-13,43.8,34.1,25.5,31.7,27.3,22.4,96,77,57,30.03,29.74,12,-23,12,0.01
2013-2-14,45.4,37.0,30.7,34.1,31.2,28.9,97,81,56,30.08,29.78,13,2,13,0.24
2013-2-15,56.0,43.2,31.9,38.5,33.0,28.6,93,70,45,30.08,29.96,20,3,20,0.24
2013-2-16,37.3,34.2,29.7,33.7,27.1,12.8,95,76,50,30.04,29.82,22,4,22,0.01
2013-2-17,30.6,26.7,20.2,13.6,8.9,2.0,56,47,39,30.13,29.78,36,8,36,0.01
2013-2-18,35.7,26.5,18.8,15.8,9.6,2.7,58,49,38,30.36,30.13,33,6,33,0.00
2013-2-19,45.0,37.1,27.6,42.2,30.2,15.2,95,77,54,30.26,29.76,25,6,25,0.18
2013-2-20,36.3,29.1,24.4,27.1,15.2,10.6,70,56,47,30.11,29.83,31,8,31,0.18
2013-2-21,34.9,28.4,23.5,18.2,15.3,11.2,72,58,49,30.37,30.08,28,6,28,0.00
2013-2-22,36.5,30.2,22.7,31.4,22.3,14.8,89,72,62,30.46,30.30,14,3,14,0.00
2013-2-23,45.4,39.4,34.0,44.8,38.5,31.4,98,96,89,30.31,29.85,19,3,19,0.10
2013-2-24,46.4,38.0,32.1,39.1,31.1,21.2,97,77,58,30.08,29.82,26,4,26,0.10
2013-2-25,44.2,35.9,29.3,30.3,25.7,21.0,81,67,53,30.29,30.08,14,-33,14,0.00
2013-2-26,44.1,35.7,26.6,36.3,30.2,23.5,95,81,64,30.31,29.84,40,5,40,0.33
2013-2-27,50.6,44.3,37.6,46.6,40.6,36.1,97,87,70,29.85,29.56,31,5,31,0.03
2013-2-28,45.7,41.7,35.7,36.5,32.9,26.3,84,71,50,29.72,29.63,19,3,19,0.03